NPV7592 LIEE-LPMA

Flight info

Callsign NPV7592
Flight time 3h 47m
Altitude 34000
Route CAR DCT VP078 DCT PIMAD/N0462F350 T100 AMPIR/N0460F360 T100 TAVSI/N0462F350 T100 ORTOP DCT GIKAR DCT RAKUN
Aircraft A320/M-SDE3FGHIRWY/LB1

Departure

Time 2026-05-08 12:15
Airport Cagliari Elmas Airport (LIEE)

Arrival

Time 2026-05-08 16:03
Airport Cristiano Ronaldo International Airport (LPMA)
Time Latitude Longitude Altitude Speed Heading
2026-05-08 12:08 39.25415 9.05812 19 ft 3 kts 232°
2026-05-08 12:08 39.25432 9.05838 15 ft 4 kts 232°
2026-05-08 12:08 39.25435 9.05844 15 ft 0 kts 232°
2026-05-08 12:11 39.25404 9.05794 15 ft 15 kts 231°
2026-05-08 12:12 39.25334 9.05694 15 ft 15 kts 201°
2026-05-08 12:12 39.25253 9.05766 15 ft 16 kts 138°
2026-05-08 12:12 39.25151 9.05881 15 ft 22 kts 137°
2026-05-08 12:12 39.25047 9.06027 15 ft 22 kts 132°
2026-05-08 12:13 39.24934 9.06169 15 ft 23 kts 141°
2026-05-08 12:13 39.24802 9.06285 15 ft 23 kts 145°
2026-05-08 12:13 39.24667 9.06397 15 ft 23 kts 146°
2026-05-08 12:13 39.24528 9.06507 16 ft 23 kts 148°
2026-05-08 12:14 39.24395 9.06589 15 ft 17 kts 200°
2026-05-08 12:14 39.24280 9.06544 16 ft 18 kts 199°
2026-05-08 12:14 39.24289 9.06421 16 ft 27 kts 319°
2026-05-08 12:14 39.24606 9.06054 15 ft 96 kts 318°
2026-05-08 12:15 39.25249 9.05310 15 ft 150 kts 317°
2026-05-08 12:15 39.26111 9.04313 330 ft 170 kts 317°
2026-05-08 12:15 39.27025 9.03356 1129 ft 170 kts 329°
2026-05-08 12:15 39.28171 9.03153 1764 ft 171 kts 16°
2026-05-08 12:16 39.29133 9.04022 2383 ft 173 kts 57°
2026-05-08 12:16 39.29475 9.05480 2999 ft 170 kts 85°
2026-05-08 12:16 39.29582 9.07008 3445 ft 177 kts 84°
2026-05-08 12:16 39.29700 9.08686 3705 ft 198 kts 84°
2026-05-08 12:17 39.29832 9.10562 3965 ft 220 kts 84°
2026-05-08 12:17 39.29980 9.12576 4452 ft 229 kts 84°
2026-05-08 12:17 39.30129 9.14632 5178 ft 232 kts 84°
2026-05-08 12:17 39.30281 9.16719 5798 ft 236 kts 84°
2026-05-08 12:18 39.30414 9.18843 6353 ft 238 kts 90°
2026-05-08 12:18 39.30269 9.20245 6771 ft 240 kts 107°
2026-05-08 12:18 39.29468 9.22213 7068 ft 260 kts 134°
2026-05-08 12:18 39.27908 9.23500 7343 ft 277 kts 167°
2026-05-08 12:19 39.25992 9.23543 7887 ft 280 kts 198°
2026-05-08 12:19 39.24306 9.22322 8553 ft 281 kts 223°
2026-05-08 12:19 39.22837 9.20647 9321 ft 283 kts 224°
2026-05-08 12:19 39.21363 9.18954 10067 ft 285 kts 224°
2026-05-08 12:20 39.19841 9.17207 10379 ft 303 kts 224°
2026-05-08 12:20 39.18205 9.15331 10512 ft 327 kts 224°
2026-05-08 12:20 39.16448 9.13327 10643 ft 347 kts 223°
2026-05-08 12:20 39.14590 9.11217 10837 ft 364 kts 223°
2026-05-08 12:21 39.12668 9.09039 11300 ft 371 kts 223°
2026-05-08 12:21 39.10721 9.06837 11916 ft 374 kts 224°
2026-05-08 12:21 39.08760 9.04613 12533 ft 376 kts 225°
2026-05-08 12:21 39.06998 9.02138 13130 ft 375 kts 236°
2026-05-08 12:22 39.05666 8.99269 13725 ft 374 kts 247°
2026-05-08 12:22 39.04815 8.96108 14273 ft 374 kts 258°
2026-05-08 12:22 39.04408 8.92809 14805 ft 374 kts 263°
2026-05-08 12:22 39.04064 8.89488 15391 ft 375 kts 263°
2026-05-08 12:23 39.03711 8.86169 15939 ft 374 kts 263°
2026-05-08 12:23 39.03356 8.82896 16452 ft 375 kts 263°
2026-05-08 12:23 39.02991 8.79568 16992 ft 376 kts 262°
2026-05-08 12:23 39.02623 8.76234 17527 ft 377 kts 263°
2026-05-08 12:24 39.02253 8.72883 18059 ft 378 kts 262°
2026-05-08 12:24 39.01883 8.69538 18540 ft 378 kts 263°
2026-05-08 12:24 39.01511 8.66188 18957 ft 380 kts 263°
2026-05-08 12:24 39.01139 8.62816 19361 ft 382 kts 263°
2026-05-08 12:25 39.00768 8.59428 19754 ft 384 kts 263°
2026-05-08 12:25 39.00395 8.56024 20155 ft 385 kts 262°
2026-05-08 12:25 39.00018 8.52604 20545 ft 387 kts 262°
2026-05-08 12:25 38.99635 8.49173 20920 ft 389 kts 262°
2026-05-08 12:26 38.99246 8.45726 21285 ft 390 kts 262°
2026-05-08 12:26 38.98855 8.42270 21652 ft 392 kts 262°
2026-05-08 12:26 38.98464 8.38798 22005 ft 394 kts 262°
2026-05-08 12:26 38.98071 8.35305 22366 ft 395 kts 262°
2026-05-08 12:27 38.97676 8.31805 22729 ft 397 kts 262°
2026-05-08 12:27 38.97278 8.28287 23077 ft 398 kts 262°
2026-05-08 12:27 38.96878 8.24762 23439 ft 400 kts 262°
2026-05-08 12:27 38.96476 8.21225 23753 ft 401 kts 262°
2026-05-08 12:28 38.96069 8.17675 24024 ft 402 kts 262°
2026-05-08 12:28 38.95663 8.14116 24292 ft 404 kts 262°
2026-05-08 12:28 38.95254 8.10538 24531 ft 405 kts 262°
2026-05-08 12:28 38.94848 8.06997 24776 ft 407 kts 262°
2026-05-08 12:29 38.94428 8.03350 25024 ft 408 kts 262°
2026-05-08 12:29 38.94017 7.99784 25269 ft 410 kts 262°
2026-05-08 12:29 38.93599 7.96163 25514 ft 411 kts 261°
2026-05-08 12:29 38.93177 7.92527 25739 ft 413 kts 261°
2026-05-08 12:30 38.92750 7.88875 25979 ft 414 kts 261°
2026-05-08 12:30 38.92319 7.85211 26210 ft 415 kts 261°
2026-05-08 12:30 38.91885 7.81544 26490 ft 416 kts 261°
2026-05-08 12:30 38.91453 7.77873 26838 ft 415 kts 261°
2026-05-08 12:31 38.91024 7.74218 27185 ft 413 kts 261°
2026-05-08 12:31 38.90595 7.70576 27514 ft 412 kts 261°
2026-05-08 12:31 38.90163 7.66945 27834 ft 412 kts 261°
2026-05-08 12:31 38.89730 7.63313 28165 ft 411 kts 261°
2026-05-08 12:32 38.89296 7.59679 28493 ft 410 kts 261°
2026-05-08 12:32 38.88868 7.56105 28829 ft 409 kts 261°
2026-05-08 12:32 38.88434 7.52502 29160 ft 408 kts 261°
2026-05-08 12:32 38.87999 7.48894 29489 ft 407 kts 261°
2026-05-08 12:33 38.87566 7.45303 29805 ft 407 kts 261°
2026-05-08 12:33 38.87131 7.41711 30125 ft 406 kts 261°
2026-05-08 12:33 38.86702 7.38164 30407 ft 405 kts 260°
2026-05-08 12:33 38.86267 7.34582 30707 ft 403 kts 260°
2026-05-08 12:34 38.85831 7.31037 31012 ft 401 kts 260°
2026-05-08 12:34 38.85395 7.27509 31303 ft 399 kts 260°
2026-05-08 12:34 38.84960 7.24000 31599 ft 398 kts 260°
2026-05-08 12:34 38.84536 7.20549 31883 ft 396 kts 260°
2026-05-08 12:35 38.84111 7.17057 32186 ft 395 kts 260°
2026-05-08 12:35 38.83689 7.13591 32487 ft 393 kts 259°
2026-05-08 12:35 38.83265 7.10134 32773 ft 392 kts 259°
2026-05-08 12:35 38.82837 7.06693 33062 ft 390 kts 259°
2026-05-08 12:36 38.82411 7.03261 33348 ft 389 kts 259°
2026-05-08 12:36 38.81987 6.99843 33629 ft 388 kts 259°
2026-05-08 12:36 38.81559 6.96434 33905 ft 387 kts 259°
2026-05-08 12:36 38.81132 6.93031 34012 ft 387 kts 259°
2026-05-08 12:37 38.80278 6.86197 34027 ft 388 kts 259°
2026-05-08 12:37 38.79413 6.79369 34026 ft 388 kts 259°
2026-05-08 12:38 38.78540 6.72532 34029 ft 389 kts 259°
2026-05-08 12:38 38.77661 6.65685 34028 ft 389 kts 259°
2026-05-08 12:39 38.76778 6.58837 34030 ft 389 kts 259°
2026-05-08 12:39 38.75912 6.52054 34034 ft 388 kts 259°
2026-05-08 12:40 38.75031 6.45228 34034 ft 388 kts 258°
2026-05-08 12:40 38.74143 6.38409 34034 ft 388 kts 258°
2026-05-08 12:41 38.73251 6.31587 34038 ft 388 kts 258°
2026-05-08 12:41 38.72360 6.24773 34036 ft 388 kts 258°
2026-05-08 12:42 38.71461 6.17966 34033 ft 388 kts 258°
2026-05-08 12:42 38.70563 6.11159 34031 ft 388 kts 258°
2026-05-08 12:43 38.69657 6.04348 34029 ft 388 kts 258°
2026-05-08 12:43 38.68737 5.97532 34030 ft 389 kts 258°
2026-05-08 12:44 38.67822 5.90717 34028 ft 389 kts 258°
2026-05-08 12:44 38.66904 5.83888 34031 ft 389 kts 258°
2026-05-08 12:45 38.65980 5.77080 34032 ft 388 kts 258°
2026-05-08 12:45 38.65058 5.70317 34034 ft 388 kts 258°
2026-05-08 12:46 38.64129 5.63520 34028 ft 388 kts 258°
2026-05-08 12:46 38.63202 5.56724 34039 ft 387 kts 258°
2026-05-08 12:47 38.62264 5.49935 34037 ft 387 kts 257°
2026-05-08 12:47 38.61320 5.43151 34034 ft 387 kts 257°
2026-05-08 12:48 38.60383 5.36380 34033 ft 387 kts 257°
2026-05-08 12:48 38.59435 5.29621 34032 ft 386 kts 257°
2026-05-08 12:49 38.58481 5.22868 34037 ft 385 kts 257°
2026-05-08 12:49 38.57530 5.16144 34037 ft 384 kts 257°
2026-05-08 12:50 38.56587 5.09466 34034 ft 384 kts 257°
2026-05-08 12:50 38.55631 5.02756 34038 ft 383 kts 257°
2026-05-08 12:51 38.54193 4.92713 34034 ft 383 kts 257°
2026-05-08 12:52 38.53228 4.86023 34027 ft 383 kts 257°
2026-05-08 12:52 38.51782 4.75986 34024 ft 383 kts 257°
2026-05-08 12:53 38.50808 4.69289 34019 ft 383 kts 257°
2026-05-08 12:53 38.49841 4.62646 34018 ft 383 kts 257°
2026-05-08 12:54 38.48857 4.55964 34021 ft 383 kts 257°
2026-05-08 12:54 38.47874 4.49291 34023 ft 383 kts 257°
2026-05-08 12:55 38.46889 4.42614 34027 ft 383 kts 257°
2026-05-08 12:55 38.45901 4.35943 34026 ft 382 kts 257°
2026-05-08 12:56 38.44905 4.29276 34030 ft 382 kts 257°
2026-05-08 12:56 38.43904 4.22616 34022 ft 382 kts 256°
2026-05-08 12:57 38.42904 4.15964 34032 ft 381 kts 256°
2026-05-08 12:57 38.41903 4.09334 34032 ft 381 kts 256°
2026-05-08 12:58 38.40910 4.02745 34025 ft 381 kts 256°
2026-05-08 12:58 38.39907 3.96116 34027 ft 381 kts 256°
2026-05-08 12:59 38.38897 3.89522 34024 ft 380 kts 256°
2026-05-08 12:59 38.37880 3.82905 34024 ft 379 kts 256°
2026-05-08 13:00 38.36867 3.76304 34024 ft 379 kts 256°
2026-05-08 13:00 38.35852 3.69712 34020 ft 378 kts 256°
2026-05-08 13:01 38.34835 3.63186 34019 ft 378 kts 256°
2026-05-08 13:01 38.33806 3.56610 34017 ft 377 kts 256°
2026-05-08 13:02 38.32783 3.50040 34012 ft 377 kts 256°
2026-05-08 13:02 38.31763 3.43518 34009 ft 377 kts 256°
2026-05-08 13:03 38.30735 3.36964 34007 ft 377 kts 256°
2026-05-08 13:03 38.29711 3.30465 34008 ft 376 kts 256°
2026-05-08 13:04 38.28674 3.23927 33872 ft 375 kts 256°
2026-05-08 13:04 38.28159 3.20672 33210 ft 376 kts 256°
2026-05-08 13:04 38.27635 3.17397 32993 ft 380 kts 256°
2026-05-08 13:05 38.26565 3.10759 32993 ft 383 kts 256°
2026-05-08 13:05 38.25507 3.04145 32990 ft 384 kts 256°
2026-05-08 13:06 38.24434 2.97475 32988 ft 384 kts 256°
2026-05-08 13:06 38.23351 2.90812 32988 ft 384 kts 256°
2026-05-08 13:07 38.22273 2.84189 32988 ft 384 kts 256°
2026-05-08 13:07 38.21193 2.77521 32986 ft 384 kts 256°
2026-05-08 13:08 38.20108 2.70879 32987 ft 384 kts 256°
2026-05-08 13:08 38.19026 2.64280 32982 ft 383 kts 256°
2026-05-08 13:09 38.17926 2.57621 32980 ft 383 kts 256°
2026-05-08 13:09 38.16787 2.51031 32979 ft 382 kts 251°
2026-05-08 13:10 38.15037 2.45901 32976 ft 381 kts 243°
2026-05-08 13:10 38.12237 2.38896 32979 ft 381 kts 243°
2026-05-08 13:11 38.10245 2.33902 32982 ft 381 kts 243°
2026-05-08 13:11 38.07857 2.27896 32980 ft 380 kts 243°
2026-05-08 13:12 38.05471 2.21924 32979 ft 380 kts 243°
2026-05-08 13:12 38.03087 2.15976 32979 ft 380 kts 243°
2026-05-08 13:13 38.00677 2.09986 32977 ft 380 kts 243°
2026-05-08 13:13 37.98284 2.04054 32983 ft 380 kts 243°
2026-05-08 13:14 37.95868 1.98068 32979 ft 380 kts 243°
2026-05-08 13:14 37.93473 1.92127 32976 ft 379 kts 243°
2026-05-08 13:15 37.91077 1.86201 32971 ft 379 kts 243°
2026-05-08 13:15 37.88659 1.80248 32964 ft 379 kts 243°
2026-05-08 13:16 37.86250 1.74337 32978 ft 379 kts 243°
2026-05-08 13:16 37.83830 1.68396 32982 ft 379 kts 243°
2026-05-08 13:17 37.81424 1.62490 32969 ft 378 kts 243°
2026-05-08 13:17 37.79021 1.56599 32971 ft 378 kts 243°
2026-05-08 13:18 37.76604 1.50715 32965 ft 378 kts 243°
2026-05-08 13:18 37.74177 1.44809 32964 ft 378 kts 244°
2026-05-08 13:19 37.71750 1.38906 32975 ft 378 kts 244°
2026-05-08 13:19 37.69320 1.33022 32976 ft 377 kts 244°
2026-05-08 13:20 37.66904 1.27166 32979 ft 377 kts 244°
2026-05-08 13:20 37.64490 1.21317 32977 ft 377 kts 244°
2026-05-08 13:21 37.62052 1.15436 32977 ft 376 kts 244°
2026-05-08 13:21 37.59640 1.09625 32972 ft 375 kts 244°
2026-05-08 13:22 37.57211 1.03782 32970 ft 375 kts 244°
2026-05-08 13:22 37.54792 0.97990 32974 ft 374 kts 244°
2026-05-08 13:23 37.52361 0.92161 32976 ft 374 kts 244°
2026-05-08 13:23 37.49954 0.86396 32977 ft 374 kts 244°
2026-05-08 13:24 37.47523 0.80586 32975 ft 374 kts 244°
2026-05-08 13:24 37.45108 0.74835 32976 ft 373 kts 244°
2026-05-08 13:25 37.42667 0.69026 32974 ft 373 kts 244°
2026-05-08 13:25 37.40253 0.63287 32974 ft 373 kts 244°
2026-05-08 13:26 37.37825 0.57532 32976 ft 373 kts 244°
2026-05-08 13:26 37.35389 0.51766 32971 ft 373 kts 244°
2026-05-08 13:27 37.32958 0.46036 32973 ft 372 kts 244°
2026-05-08 13:27 37.30510 0.40295 32970 ft 371 kts 244°
2026-05-08 13:28 37.28089 0.34599 32969 ft 371 kts 244°
2026-05-08 13:28 37.25662 0.28894 32969 ft 371 kts 244°
2026-05-08 13:29 37.23221 0.23175 32972 ft 371 kts 244°
2026-05-08 13:29 37.20793 0.17489 32971 ft 370 kts 244°
2026-05-08 13:30 37.18363 0.11804 32975 ft 370 kts 244°
2026-05-08 13:30 37.15931 0.06127 32974 ft 370 kts 244°
2026-05-08 13:31 37.13478 0.00426 32977 ft 370 kts 244°
2026-05-08 13:31 37.11047 -0.05213 32971 ft 369 kts 244°
2026-05-08 13:32 37.08599 -0.10889 32969 ft 369 kts 244°
2026-05-08 13:32 37.06167 -0.16531 32972 ft 369 kts 244°
2026-05-08 13:33 37.03739 -0.22159 32978 ft 368 kts 244°
2026-05-08 13:33 37.01293 -0.27812 32980 ft 368 kts 244°
2026-05-08 13:34 36.98852 -0.33421 32980 ft 368 kts 244°
2026-05-08 13:34 36.96419 -0.39018 32972 ft 367 kts 244°
2026-05-08 13:35 36.93974 -0.44632 32975 ft 367 kts 244°
2026-05-08 13:35 36.91539 -0.50216 32978 ft 367 kts 243°
2026-05-08 13:36 36.89087 -0.55829 32977 ft 367 kts 243°
2026-05-08 13:36 36.86652 -0.61391 32980 ft 366 kts 243°
2026-05-08 13:37 36.84210 -0.66950 32981 ft 366 kts 243°
2026-05-08 13:37 36.81754 -0.72534 32980 ft 366 kts 243°
2026-05-08 13:38 36.79304 -0.78096 32981 ft 366 kts 243°
2026-05-08 13:38 36.76855 -0.83670 32977 ft 366 kts 243°
2026-05-08 13:39 36.74412 -0.89214 32975 ft 365 kts 243°
2026-05-08 13:39 36.71975 -0.94731 32972 ft 365 kts 243°
2026-05-08 13:40 36.69507 -1.00286 32972 ft 365 kts 243°
2026-05-08 13:40 36.67061 -1.05810 32976 ft 365 kts 243°
2026-05-08 13:41 36.64613 -1.11321 32977 ft 365 kts 243°
2026-05-08 13:41 36.62146 -1.16846 32979 ft 365 kts 243°
2026-05-08 13:42 36.59786 -1.22444 32973 ft 363 kts 250°
2026-05-08 13:42 36.58167 -1.28371 32976 ft 363 kts 251°
2026-05-08 13:43 36.56539 -1.34340 32979 ft 363 kts 251°
2026-05-08 13:43 36.54908 -1.40274 32975 ft 363 kts 251°
2026-05-08 13:44 36.53272 -1.46228 32978 ft 363 kts 251°
2026-05-08 13:44 36.51641 -1.52145 32976 ft 363 kts 251°
2026-05-08 13:45 36.50003 -1.58055 32979 ft 363 kts 251°
2026-05-08 13:45 36.48358 -1.64004 32983 ft 363 kts 251°
2026-05-08 13:46 36.46722 -1.69910 32981 ft 363 kts 251°
2026-05-08 13:46 36.45077 -1.75860 32987 ft 363 kts 251°
2026-05-08 13:47 36.43423 -1.81790 32983 ft 363 kts 250°
2026-05-08 13:47 36.41765 -1.87684 32987 ft 363 kts 250°
2026-05-08 13:48 36.40118 -1.93568 32983 ft 362 kts 250°
2026-05-08 13:48 36.38460 -1.99486 32975 ft 362 kts 250°
2026-05-08 13:49 36.36812 -2.05407 32976 ft 362 kts 253°
2026-05-08 13:49 36.35616 -2.11461 32971 ft 363 kts 255°
2026-05-08 13:50 36.34427 -2.17555 32975 ft 363 kts 255°
2026-05-08 13:50 36.33233 -2.23655 32977 ft 363 kts 255°
2026-05-08 13:51 36.32045 -2.29698 32971 ft 363 kts 255°
2026-05-08 13:51 36.30844 -2.35793 32974 ft 363 kts 255°
2026-05-08 13:52 36.29637 -2.41877 32976 ft 363 kts 255°
2026-05-08 13:52 36.28435 -2.47923 32979 ft 362 kts 255°
2026-05-08 13:53 36.27237 -2.53964 32975 ft 362 kts 255°
2026-05-08 13:53 36.26028 -2.60044 32974 ft 362 kts 254°
2026-05-08 13:54 36.24829 -2.66078 32973 ft 363 kts 254°
2026-05-08 13:54 36.23615 -2.72160 32970 ft 362 kts 254°
2026-05-08 13:55 36.22400 -2.78182 32967 ft 362 kts 254°
2026-05-08 13:56 36.20585 -2.87296 32958 ft 363 kts 257°
2026-05-08 13:56 36.20144 -2.93514 32958 ft 365 kts 262°
2026-05-08 13:57 36.19795 -2.99804 32963 ft 365 kts 262°
2026-05-08 13:57 36.19435 -3.06061 32963 ft 365 kts 262°
2026-05-08 13:58 36.19062 -3.12319 32963 ft 366 kts 262°
2026-05-08 13:58 36.18699 -3.18588 32951 ft 366 kts 262°
2026-05-08 13:59 36.18335 -3.24908 32968 ft 366 kts 262°
2026-05-08 13:59 36.17968 -3.31169 32963 ft 366 kts 262°
2026-05-08 14:00 36.17592 -3.37471 32959 ft 366 kts 262°
2026-05-08 14:00 36.17210 -3.43741 32970 ft 366 kts 261°
2026-05-08 14:01 36.16824 -3.49997 32963 ft 366 kts 261°
2026-05-08 14:01 36.16438 -3.56290 32954 ft 366 kts 261°
2026-05-08 14:01 36.16243 -3.59431 33087 ft 367 kts 261°
2026-05-08 14:02 36.16046 -3.62580 33400 ft 366 kts 261°
2026-05-08 14:02 36.15855 -3.65685 33734 ft 364 kts 261°
2026-05-08 14:02 36.15663 -3.68813 34053 ft 362 kts 261°
2026-05-08 14:02 36.15470 -3.71915 34307 ft 361 kts 261°
2026-05-08 14:03 36.15279 -3.74974 34552 ft 360 kts 261°
2026-05-08 14:03 36.15084 -3.78062 34781 ft 360 kts 261°
2026-05-08 14:03 36.14887 -3.81149 34936 ft 360 kts 261°
2026-05-08 14:04 36.14556 -3.86290 34962 ft 360 kts 261°
2026-05-08 14:04 36.14157 -3.92461 34961 ft 360 kts 261°
2026-05-08 14:05 36.13757 -3.98612 34962 ft 360 kts 261°
2026-05-08 14:05 36.13351 -4.04789 34964 ft 359 kts 261°
2026-05-08 14:06 36.12940 -4.10966 34964 ft 359 kts 260°
2026-05-08 14:06 36.12538 -4.17084 34968 ft 359 kts 261°
2026-05-08 14:07 36.12128 -4.23243 34966 ft 358 kts 260°
2026-05-08 14:07 36.11706 -4.29391 34969 ft 359 kts 260°
2026-05-08 14:08 36.11289 -4.35501 34959 ft 359 kts 260°
2026-05-08 14:08 36.10873 -4.41663 34963 ft 358 kts 260°
2026-05-08 14:09 36.10444 -4.47809 34963 ft 358 kts 260°
2026-05-08 14:09 36.10010 -4.53931 34965 ft 359 kts 260°
2026-05-08 14:10 36.09586 -4.60053 34964 ft 358 kts 260°
2026-05-08 14:10 36.09149 -4.66216 34967 ft 358 kts 259°
2026-05-08 14:11 36.08712 -4.72297 34957 ft 357 kts 259°
2026-05-08 14:11 36.08102 -4.78410 34956 ft 356 kts 257°
2026-05-08 14:12 36.07348 -4.84451 34950 ft 355 kts 257°
2026-05-08 14:12 36.06599 -4.90497 34951 ft 356 kts 257°
2026-05-08 14:13 36.05885 -4.96534 34949 ft 356 kts 257°
2026-05-08 14:13 36.05169 -5.02628 34952 ft 357 kts 257°
2026-05-08 14:14 36.04452 -5.08669 34951 ft 357 kts 257°
2026-05-08 14:14 36.03720 -5.14741 34942 ft 356 kts 257°
2026-05-08 14:15 36.02992 -5.20789 34943 ft 357 kts 257°
2026-05-08 14:15 36.02264 -5.26831 34943 ft 357 kts 257°
2026-05-08 14:16 36.01527 -5.32921 34943 ft 357 kts 256°
2026-05-08 14:16 36.00789 -5.38992 34944 ft 357 kts 256°
2026-05-08 14:17 36.00059 -5.45032 34938 ft 357 kts 256°
2026-05-08 14:17 35.99315 -5.51095 34933 ft 356 kts 256°
2026-05-08 14:18 35.98558 -5.57155 34928 ft 357 kts 256°
2026-05-08 14:18 35.97811 -5.63183 34926 ft 356 kts 256°
2026-05-08 14:19 35.97064 -5.69233 34913 ft 357 kts 256°
2026-05-08 14:19 35.96312 -5.75295 34909 ft 358 kts 256°
2026-05-08 14:20 35.95557 -5.81368 34905 ft 356 kts 256°
2026-05-08 14:20 35.94797 -5.87391 34907 ft 357 kts 256°
2026-05-08 14:21 35.94030 -5.93426 34903 ft 357 kts 256°
2026-05-08 14:21 35.93683 -5.99599 34906 ft 362 kts 262°
2026-05-08 14:22 35.93584 -6.05779 34908 ft 362 kts 262°
2026-05-08 14:22 35.93470 -6.12004 34914 ft 363 kts 262°
2026-05-08 14:23 35.93353 -6.18228 34926 ft 363 kts 261°
2026-05-08 14:23 35.93232 -6.24440 34938 ft 364 kts 261°
2026-05-08 14:24 35.93108 -6.30688 34946 ft 364 kts 261°
2026-05-08 14:24 35.92975 -6.36911 34943 ft 362 kts 261°
2026-05-08 14:25 35.92838 -6.43082 34940 ft 362 kts 261°
2026-05-08 14:25 35.92700 -6.49300 34948 ft 362 kts 261°
2026-05-08 14:26 35.92565 -6.55475 34944 ft 361 kts 261°
2026-05-08 14:26 35.92423 -6.61709 34927 ft 362 kts 261°
2026-05-08 14:27 35.92282 -6.67897 34939 ft 362 kts 261°
2026-05-08 14:27 35.92869 -6.74186 34942 ft 375 kts 271°
2026-05-08 14:28 35.93865 -6.80515 34941 ft 375 kts 271°
2026-05-08 14:28 35.94850 -6.86825 34945 ft 374 kts 271°
2026-05-08 14:29 35.95820 -6.93125 34943 ft 374 kts 271°
2026-05-08 14:29 35.96786 -6.99432 34946 ft 375 kts 271°
2026-05-08 14:30 35.97745 -7.05756 34949 ft 374 kts 271°
2026-05-08 14:30 35.98702 -7.12071 34947 ft 374 kts 270°
2026-05-08 14:31 35.99666 -7.18403 34951 ft 375 kts 270°
2026-05-08 14:31 36.00620 -7.24694 34957 ft 375 kts 270°
2026-05-08 14:32 36.02046 -7.34182 34953 ft 374 kts 270°
2026-05-08 14:32 36.02301 -7.37328 34949 ft 363 kts 261°
2026-05-08 14:32 36.02080 -7.40388 34950 ft 354 kts 252°
2026-05-08 14:33 36.00725 -7.46176 34945 ft 350 kts 248°
2026-05-08 14:33 35.99302 -7.51924 34941 ft 350 kts 248°
2026-05-08 14:34 35.97882 -7.57667 34936 ft 350 kts 248°
2026-05-08 14:34 35.96457 -7.63415 34926 ft 350 kts 248°
2026-05-08 14:35 35.95024 -7.69162 34923 ft 350 kts 248°
2026-05-08 14:35 35.93587 -7.74905 34920 ft 350 kts 248°
2026-05-08 14:36 35.92159 -7.80612 34925 ft 351 kts 248°
2026-05-08 14:36 35.90713 -7.86369 34928 ft 351 kts 248°
2026-05-08 14:37 35.89264 -7.92121 34927 ft 351 kts 248°
2026-05-08 14:37 35.87811 -7.97877 34930 ft 351 kts 248°
2026-05-08 14:38 35.86370 -8.03585 34928 ft 352 kts 248°
2026-05-08 14:38 35.84902 -8.09363 34926 ft 352 kts 248°
2026-05-08 14:39 35.83445 -8.15114 34931 ft 353 kts 248°
2026-05-08 14:39 35.81986 -8.20873 34937 ft 352 kts 247°
2026-05-08 14:40 35.80526 -8.26610 34929 ft 352 kts 247°
2026-05-08 14:40 35.79051 -8.32386 34933 ft 352 kts 247°
2026-05-08 14:41 35.77585 -8.38117 34935 ft 352 kts 247°
2026-05-08 14:41 35.76103 -8.43879 34930 ft 352 kts 247°
2026-05-08 14:42 35.74627 -8.49606 34932 ft 352 kts 247°
2026-05-08 14:42 35.73132 -8.55376 34928 ft 352 kts 247°
2026-05-08 14:43 35.71645 -8.61098 34931 ft 352 kts 247°
2026-05-08 14:43 35.70164 -8.66837 34929 ft 351 kts 247°
2026-05-08 14:44 35.68692 -8.72534 34927 ft 350 kts 247°
2026-05-08 14:44 35.67194 -8.78253 34918 ft 350 kts 246°
2026-05-08 14:45 35.65712 -8.83933 34908 ft 350 kts 246°
2026-05-08 14:45 35.64226 -8.89651 34907 ft 350 kts 247°
2026-05-08 14:46 35.62741 -8.95328 34902 ft 350 kts 246°
2026-05-08 14:46 35.61250 -9.00999 34897 ft 350 kts 246°
2026-05-08 14:47 35.59751 -9.06713 34893 ft 351 kts 246°
2026-05-08 14:47 35.58251 -9.12404 34893 ft 351 kts 246°
2026-05-08 14:48 35.56739 -9.18118 34895 ft 351 kts 246°
2026-05-08 14:48 35.55245 -9.23787 34898 ft 351 kts 246°
2026-05-08 14:49 35.53728 -9.29498 34897 ft 351 kts 246°
2026-05-08 14:49 35.52213 -9.35179 34896 ft 351 kts 246°
2026-05-08 14:50 35.50691 -9.40887 34887 ft 350 kts 246°
2026-05-08 14:50 35.49173 -9.46551 34886 ft 351 kts 246°
2026-05-08 14:51 35.47655 -9.52237 34886 ft 351 kts 246°
2026-05-08 14:51 35.46133 -9.57919 34888 ft 351 kts 246°
2026-05-08 14:52 35.43843 -9.66472 34885 ft 351 kts 246°
2026-05-08 14:53 35.42314 -9.72133 34889 ft 351 kts 246°
2026-05-08 14:53 35.40782 -9.77785 34877 ft 351 kts 246°
2026-05-08 14:54 35.39240 -9.83474 34878 ft 351 kts 246°
2026-05-08 14:54 35.37705 -9.89145 34878 ft 351 kts 246°
2026-05-08 14:55 35.36155 -9.94848 34868 ft 351 kts 246°
2026-05-08 14:55 35.34619 -10.00492 34871 ft 351 kts 246°
2026-05-08 14:56 35.33065 -10.06186 34870 ft 351 kts 246°
2026-05-08 14:56 35.31520 -10.11843 34869 ft 351 kts 246°
2026-05-08 14:57 35.30222 -10.16560 34866 ft 351 kts 246°
2026-05-08 14:57 35.28657 -10.22241 34865 ft 351 kts 246°
2026-05-08 14:58 35.27103 -10.27910 34865 ft 352 kts 246°
2026-05-08 14:58 35.25541 -10.33570 34864 ft 352 kts 246°
2026-05-08 14:59 35.23985 -10.39211 34866 ft 352 kts 246°
2026-05-08 14:59 35.21634 -10.47733 34870 ft 352 kts 246°
2026-05-08 15:00 35.20062 -10.53385 34864 ft 352 kts 246°
2026-05-08 15:00 35.18479 -10.59062 34865 ft 352 kts 246°
2026-05-08 15:01 35.16907 -10.64705 34863 ft 352 kts 246°
2026-05-08 15:01 35.15316 -10.70386 34861 ft 352 kts 246°
2026-05-08 15:02 35.13730 -10.76019 34857 ft 353 kts 246°
2026-05-08 15:02 35.12135 -10.81705 34853 ft 353 kts 246°
2026-05-08 15:03 35.10549 -10.87355 34853 ft 353 kts 246°
2026-05-08 15:03 35.08950 -10.93051 34856 ft 353 kts 246°
2026-05-08 15:04 35.07360 -10.98697 34848 ft 353 kts 246°
2026-05-08 15:04 35.05750 -11.04382 34839 ft 354 kts 246°
2026-05-08 15:05 35.04136 -11.10067 34838 ft 354 kts 246°
2026-05-08 15:05 35.02519 -11.15741 34832 ft 355 kts 246°
2026-05-08 15:06 35.00901 -11.21420 34838 ft 356 kts 246°
2026-05-08 15:06 34.99270 -11.27149 34830 ft 356 kts 246°
2026-05-08 15:07 34.97643 -11.32843 34828 ft 357 kts 246°
2026-05-08 15:07 34.96009 -11.38554 34832 ft 358 kts 246°
2026-05-08 15:08 34.94646 -11.43325 34822 ft 358 kts 246°
2026-05-08 15:08 34.92723 -11.50010 34827 ft 359 kts 246°
2026-05-08 15:09 34.91062 -11.55761 34821 ft 359 kts 246°
2026-05-08 15:09 34.89388 -11.61534 34822 ft 360 kts 246°
2026-05-08 15:10 34.87734 -11.67280 34816 ft 362 kts 246°
2026-05-08 15:10 34.86057 -11.73079 34820 ft 363 kts 246°
2026-05-08 15:11 34.84372 -11.78856 34816 ft 364 kts 246°
2026-05-08 15:11 34.82686 -11.84658 34813 ft 364 kts 246°
2026-05-08 15:12 34.80981 -11.90501 34813 ft 366 kts 246°
2026-05-08 15:12 34.79276 -11.96347 34808 ft 367 kts 246°
2026-05-08 15:13 34.77569 -12.02178 34807 ft 368 kts 246°
2026-05-08 15:13 34.75842 -12.08070 34807 ft 369 kts 246°
2026-05-08 15:14 34.74119 -12.13923 34806 ft 370 kts 246°
2026-05-08 15:14 34.72381 -12.19816 34801 ft 371 kts 246°
2026-05-08 15:15 34.70633 -12.25739 34802 ft 372 kts 246°
2026-05-08 15:15 34.68877 -12.31668 34798 ft 373 kts 246°
2026-05-08 15:16 34.67125 -12.37571 34794 ft 373 kts 246°
2026-05-08 15:16 34.65361 -12.43517 34791 ft 374 kts 246°
2026-05-08 15:17 34.63599 -12.49432 34795 ft 374 kts 246°
2026-05-08 15:17 34.61815 -12.55391 34797 ft 375 kts 246°
2026-05-08 15:18 34.60043 -12.61343 34796 ft 376 kts 246°
2026-05-08 15:18 34.58250 -12.67329 34799 ft 377 kts 246°
2026-05-08 15:19 34.56461 -12.73284 34800 ft 377 kts 246°
2026-05-08 15:19 34.54655 -12.79262 34807 ft 378 kts 246°
2026-05-08 15:20 34.52858 -12.85230 34806 ft 378 kts 247°
2026-05-08 15:20 34.51043 -12.91247 34811 ft 379 kts 247°
2026-05-08 15:21 34.49233 -12.97219 34810 ft 379 kts 247°
2026-05-08 15:21 34.47421 -13.03207 34812 ft 379 kts 247°
2026-05-08 15:22 34.45604 -13.09187 34813 ft 379 kts 247°
2026-05-08 15:22 34.43772 -13.15206 34818 ft 379 kts 247°
2026-05-08 15:23 34.41942 -13.21195 34813 ft 380 kts 247°
2026-05-08 15:23 34.40103 -13.27191 34811 ft 380 kts 247°
2026-05-08 15:24 34.38277 -13.33164 34809 ft 380 kts 247°
2026-05-08 15:24 34.36433 -13.39170 34809 ft 381 kts 247°
2026-05-08 15:25 34.34584 -13.45188 34812 ft 381 kts 247°
2026-05-08 15:25 34.32731 -13.51207 34806 ft 381 kts 247°
2026-05-08 15:26 34.30883 -13.57198 34793 ft 381 kts 247°
2026-05-08 15:26 34.29025 -13.63189 34790 ft 381 kts 247°
2026-05-08 15:27 34.27155 -13.69195 34794 ft 381 kts 247°
2026-05-08 15:27 34.25297 -13.75178 34788 ft 381 kts 247°
2026-05-08 15:28 34.23432 -13.81175 34790 ft 382 kts 247°
2026-05-08 15:28 34.21553 -13.87197 34786 ft 382 kts 247°
2026-05-08 15:29 34.19676 -13.93192 34786 ft 383 kts 247°
2026-05-08 15:29 34.17790 -13.99225 34786 ft 384 kts 247°
2026-05-08 15:30 34.15894 -14.05220 34788 ft 384 kts 246°
2026-05-08 15:30 34.13881 -14.11171 34790 ft 384 kts 246°
2026-05-08 15:31 34.11824 -14.17142 34789 ft 385 kts 246°
2026-05-08 15:31 34.09773 -14.23122 34791 ft 386 kts 246°
2026-05-08 15:32 34.07732 -14.29115 34790 ft 387 kts 246°
2026-05-08 15:32 34.05690 -14.35120 34789 ft 387 kts 246°
2026-05-08 15:33 34.03646 -14.41104 34791 ft 388 kts 246°
2026-05-08 15:33 34.01581 -14.47124 34791 ft 388 kts 246°
2026-05-08 15:34 33.99507 -14.53156 34793 ft 389 kts 246°
2026-05-08 15:34 33.97432 -14.59185 34792 ft 389 kts 246°
2026-05-08 15:35 33.95363 -14.65174 34793 ft 390 kts 246°
2026-05-08 15:35 33.93275 -14.71203 34799 ft 390 kts 246°
2026-05-08 15:36 33.91526 -14.76262 34798 ft 391 kts 247°
2026-05-08 15:36 33.89094 -14.83291 34799 ft 391 kts 247°
2026-05-08 15:37 33.86991 -14.89337 34798 ft 392 kts 247°
2026-05-08 15:37 33.84880 -14.95397 34803 ft 393 kts 247°
2026-05-08 15:38 33.82771 -15.01475 34802 ft 394 kts 247°
2026-05-08 15:38 33.80650 -15.07558 34802 ft 394 kts 247°
2026-05-08 15:39 33.78534 -15.13601 34806 ft 395 kts 247°
2026-05-08 15:39 33.76396 -15.19678 34806 ft 395 kts 248°
2026-05-08 15:40 33.74259 -15.25763 34812 ft 395 kts 248°
2026-05-08 15:40 33.72122 -15.31849 34809 ft 395 kts 248°
2026-05-08 15:41 33.69978 -15.37930 34790 ft 396 kts 248°
2026-05-08 15:41 33.68901 -15.40978 34553 ft 396 kts 248°
2026-05-08 15:41 33.67828 -15.44013 34323 ft 395 kts 248°
2026-05-08 15:42 33.66754 -15.47051 34068 ft 395 kts 248°
2026-05-08 15:42 33.65675 -15.50099 33228 ft 397 kts 248°
2026-05-08 15:42 33.64592 -15.53148 32421 ft 397 kts 248°
2026-05-08 15:42 33.63510 -15.56196 31567 ft 398 kts 248°
2026-05-08 15:43 33.62424 -15.59257 30730 ft 399 kts 248°
2026-05-08 15:43 33.61338 -15.62316 29866 ft 399 kts 248°
2026-05-08 15:43 33.60249 -15.65390 28803 ft 401 kts 248°
2026-05-08 15:43 33.59155 -15.68466 27830 ft 400 kts 248°
2026-05-08 15:44 33.58060 -15.71533 26885 ft 400 kts 248°
2026-05-08 15:44 33.56959 -15.74605 25827 ft 402 kts 248°
2026-05-08 15:44 33.55633 -15.77527 24785 ft 407 kts 240°
2026-05-08 15:44 33.53887 -15.80233 23750 ft 414 kts 232°
2026-05-08 15:45 33.51831 -15.82680 22589 ft 418 kts 229°
2026-05-08 15:45 33.49737 -15.85120 21535 ft 418 kts 229°
2026-05-08 15:45 33.47663 -15.87542 20700 ft 415 kts 229°
2026-05-08 15:45 33.45607 -15.89948 19856 ft 412 kts 229°
2026-05-08 15:46 33.43568 -15.92335 19030 ft 409 kts 229°
2026-05-08 15:46 33.41538 -15.94714 18218 ft 407 kts 229°
2026-05-08 15:46 33.39516 -15.97079 17379 ft 403 kts 229°
2026-05-08 15:46 33.37557 -15.99360 16633 ft 383 kts 229°
2026-05-08 15:47 33.35687 -16.01531 15914 ft 366 kts 229°
2026-05-08 15:47 33.33866 -16.03649 15247 ft 365 kts 229°
2026-05-08 15:47 33.32666 -16.05051 14826 ft 365 kts 229°
2026-05-08 15:47 33.30856 -16.07172 14188 ft 364 kts 229°
2026-05-08 15:48 33.26675 -16.12063 12696 ft 358 kts 228°
2026-05-08 15:48 33.25472 -16.13463 12282 ft 356 kts 228°
2026-05-08 15:48 33.23703 -16.15516 11672 ft 352 kts 228°
2026-05-08 15:49 33.21958 -16.17539 11183 ft 346 kts 228°
2026-05-08 15:49 33.20266 -16.19497 11040 ft 330 kts 228°
2026-05-08 15:49 33.18674 -16.21334 10927 ft 315 kts 229°
2026-05-08 15:49 33.17157 -16.23083 10797 ft 291 kts 229°
2026-05-08 15:50 33.15754 -16.24698 10587 ft 272 kts 229°
2026-05-08 15:50 33.14418 -16.26247 10228 ft 264 kts 230°
2026-05-08 15:50 33.13105 -16.27779 9985 ft 264 kts 230°
2026-05-08 15:50 33.11793 -16.29308 9782 ft 262 kts 230°
2026-05-08 15:51 33.10489 -16.30823 9678 ft 262 kts 230°
2026-05-08 15:51 33.09185 -16.32337 9538 ft 261 kts 230°
2026-05-08 15:51 33.07882 -16.33850 9408 ft 261 kts 230°
2026-05-08 15:51 33.06578 -16.35362 9279 ft 262 kts 230°
2026-05-08 15:52 33.05277 -16.36866 9158 ft 257 kts 230°
2026-05-08 15:52 33.04015 -16.38312 9013 ft 245 kts 231°
2026-05-08 15:52 33.02812 -16.39693 8884 ft 235 kts 230°
2026-05-08 15:52 33.01648 -16.41028 8617 ft 232 kts 230°
2026-05-08 15:53 33.00495 -16.42359 8254 ft 231 kts 230°
2026-05-08 15:53 32.99340 -16.43695 7872 ft 232 kts 230°
2026-05-08 15:53 32.98183 -16.45032 7493 ft 231 kts 230°
2026-05-08 15:53 32.97030 -16.46365 7144 ft 230 kts 230°
2026-05-08 15:54 32.95897 -16.47670 6748 ft 224 kts 230°
2026-05-08 15:54 32.94785 -16.48951 6355 ft 220 kts 230°
2026-05-08 15:54 32.93696 -16.50207 5972 ft 216 kts 230°
2026-05-08 15:54 32.92632 -16.51424 5614 ft 210 kts 229°
2026-05-08 15:55 32.91560 -16.52588 5263 ft 206 kts 228°
2026-05-08 15:55 32.89511 -16.54755 4732 ft 190 kts 227°
2026-05-08 15:55 32.88566 -16.55751 4686 ft 170 kts 228°
2026-05-08 15:56 32.87726 -16.56639 4638 ft 154 kts 229°
2026-05-08 15:56 32.86959 -16.57450 4562 ft 142 kts 229°
2026-05-08 15:56 32.86241 -16.58216 4500 ft 137 kts 230°
2026-05-08 15:56 32.85535 -16.58973 4460 ft 136 kts 230°
2026-05-08 15:57 32.84847 -16.59748 4303 ft 136 kts 232°
2026-05-08 15:57 32.84180 -16.60532 4112 ft 134 kts 232°
2026-05-08 15:57 32.83521 -16.61313 3894 ft 133 kts 232°
2026-05-08 15:57 32.82868 -16.62089 3707 ft 133 kts 231°
2026-05-08 15:58 32.82207 -16.62872 3509 ft 135 kts 231°
2026-05-08 15:58 32.81540 -16.63657 3316 ft 135 kts 231°
2026-05-08 15:58 32.80868 -16.64446 3113 ft 137 kts 231°
2026-05-08 15:58 32.80190 -16.65243 2910 ft 137 kts 231°
2026-05-08 15:59 32.79515 -16.66037 2714 ft 137 kts 231°
2026-05-08 15:59 32.78842 -16.66831 2503 ft 135 kts 231°
2026-05-08 15:59 32.78182 -16.67607 2309 ft 133 kts 231°
2026-05-08 15:59 32.77523 -16.68381 2135 ft 133 kts 231°
2026-05-08 16:00 32.76862 -16.69154 1924 ft 133 kts 231°
2026-05-08 16:00 32.76212 -16.69913 1744 ft 130 kts 231°
2026-05-08 16:00 32.75575 -16.70658 1573 ft 127 kts 232°
2026-05-08 16:00 32.74951 -16.71390 1406 ft 126 kts 231°
2026-05-08 16:01 32.74320 -16.72133 1249 ft 130 kts 233°
2026-05-08 16:01 32.73685 -16.72873 1067 ft 126 kts 231°
2026-05-08 16:01 32.73075 -16.73600 944 ft 124 kts 230°
2026-05-08 16:01 32.72454 -16.74333 806 ft 128 kts 226°
2026-05-08 16:02 32.71813 -16.75081 612 ft 129 kts 226°
2026-05-08 16:02 32.71189 -16.75806 411 ft 124 kts 226°
2026-05-08 16:02 32.70565 -16.76528 253 ft 124 kts 225°
2026-05-08 16:02 32.69960 -16.77249 203 ft 118 kts 225°
2026-05-08 16:03 32.69521 -16.77758 174 ft 44 kts 225°
2026-05-08 16:03 32.69361 -16.77942 169 ft 17 kts 222°
2026-05-08 16:03 32.69297 -16.77935 169 ft 8 kts 126°
2026-05-08 16:03 32.69308 -16.77861 169 ft 11 kts 40°
2026-05-08 16:04 32.69326 -16.77827 169 ft 0 kts 63°
2026-05-08 16:04 32.69328 -16.77817 169 ft 2 kts 72°
2026-05-08 16:04 32.69339 -16.77796 169 ft 3 kts 50°
2026-05-08 16:04 32.69346 -16.77787 169 ft 6 kts 50°
2026-05-08 16:05 32.69385 -16.77738 169 ft 7 kts 46°
2026-05-08 16:05 32.69387 -16.77695 169 ft 5 kts 123°
2026-05-08 16:05 32.69369 -16.77672 169 ft 1 kts 137°
2026-05-08 16:05 32.69366 -16.77669 169 ft 0 kts 137°
2026-05-08 16:06 32.69360 -16.77663 169 ft 1 kts 138°
2026-05-08 16:06 32.69356 -16.77659 169 ft 1 kts 138°
2026-05-08 16:06 32.69356 -16.77658 169 ft 0 kts 138°
2026-05-08 16:07 32.69356 -16.77659 169 ft 0 kts 138°